Flag for Colombia Weather past 2 weeks in Ibagué, Colombia

Now
70 °F

Passing clouds.


Feels Like: 70 °F
Forecast: 50 / 79 °F
Wind: 8 mph from East

Location: Pereira / Matecana

Current Time: Jul 31, 2014 at 11:39:47 PM

Latest Report: Jul 31, 2014 at 11:00 PM


Visibility: N/A

Pressure: 30.06 "Hg

Humidity: 73%

Dew point: 61 °F

Location of IbaguéLocation

Historic Weather in Ibagué — Graph

°F

Ibagué temperature yesterday

Maximum temperature yesterday: 88 °F (at 4:00 PM)
Minimum temperature yesterday: 66 °F (at 7:00 AM)
Average temperature yesterday: 76 °F

Past Weeks' High & Low Weather Summary

 TemperatureHumidityPressure
High88 °F (Jul 19, 4:00 PM)94% (Jul 23, 5:00 AM)30.19 "Hg (Jul 23, 5:00 AM)
Low64 °F (Jul 20, 7:00 AM)40% (Jul 19, 4:00 PM)29.93 "Hg (Jul 24, 4:00 PM)
Average75 °F68%30.07 "Hg
* Reported Jul 16 10:00 PM — Jul 31 10:00 PM, Ibagué, Weather by CustomWeather, © 2014

Note: Actual official high and low records may vary slightly from our data, if they occured in-between our weather recording intervals... More about our weather records

Advertising

Ibagué weather history for previous 24 hours

 ConditionsComfort  
Time TempWeatherWind HumidityBarometerVisibility
10:00 PM
Jul 31
72 °FPassing clouds.7 mph69%30.06 "HgN/A
9:00 PM73 °FPassing clouds.6 mph69%30.04 "HgN/A
8:00 PM75 °FPassing clouds.7 mph69%30.03 "HgN/A
7:00 PM77 °FPassing clouds.2 mph65%30.01 "HgN/A
6:00 PM81 °FScattered clouds.2 mph54%29.99 "HgN/A
5:00 PM82 °FScattered clouds.2 mph51%29.98 "HgN/A
4:00 PM84 °FScattered clouds.2 mph45%29.97 "HgN/A
3:00 PM82 °FScattered clouds.9 mph51%30.03 "HgN/A
2:00 PM82 °FScattered clouds.5 mph55%30.05 "HgN/A
1:00 PM82 °FScattered clouds.5 mph51%30.06 "HgN/A
12:00 PM81 °FPassing clouds.6 mph58%30.09 "HgN/A
10:00 AM75 °FPassing clouds.6 mph69%30.11 "HgN/A
9:00 AM72 °FPassing clouds.5 mph73%30.14 "HgN/A
8:00 AM70 °FPassing clouds.2 mph73%30.14 "HgN/A
7:00 AM66 °FPassing clouds.2 mph78%30.12 "HgN/A
6:00 AM66 °FPartly sunny.9 mph78%30.11 "HgN/A
5:00 AM68 °FPassing clouds.8 mph78%30.11 "HgN/A
12:00 AM70 °FPassing clouds.6 mph69%30.09 "HgN/A
11:00 PM
Jul 30
72 °FPassing clouds.8 mph69%30.10 "HgN/A
Weather by CustomWeather, © 2014

See weather overviewHow to use our weather pages